Location: *
(50.6089°N, 2.2719°E)
Time: 23:51:35
(UTC+00:00)

ARGOS - Pass Details

Date: 18 October 2019
Orbit: 820 x 835 km, 98.5° (Epoch: 14 November)

Event Time Altitude Azimuth Distance (km) Brightness Sun altitude
Exits shadow 18:19:44 21° 82° (E) 1,809 4.3 -14.4°
Maximum altitude 18:21:19 24° 57° (ENE) 1,683 4.3 -14.7°
Drops below altitude 10° 18:25:32 10° 6° (N) 2,459 5.6 -15.3°
Sets 18:28:19 0° 353° (N) 3,398 6.5 -15.8°
